{"data":{"norad_id":56137,"intl_designator":"2023-046AX","name":"STARLINK-5090","alt_names":[],"object_type":"PAYLOAD","status":"ACTIVE","operator":null,"country":"US","launch_date":"2023-03-29","launch_site_code":"AFETR","launch_vehicle":null,"mission":null,"orbit_class":"UNKNOWN","rcs_meters":null,"size_class":null,"mass_kg":null,"dimensions":null,"purposes":["comms"],"wikipedia_slug":null,"has_3d_model":false,"image_url":null,"decayed_at":null,"tle_current":{"epoch":"2026-05-25T01:52:17.556672Z","epoch_age_seconds":78678,"freshness":"FRESH","line1":"1 56137U 23046AX  26145.07798098  .00001002  00000+0  45954-4 0  9996","line2":"2 56137  43.0055  75.5025 0001408 258.6529 101.4164 15.27572959173881","mean_motion":15.27572959,"eccentricity":0.0001408,"inclination_deg":43.0055,"raan_deg":75.5025,"arg_perigee_deg":258.6529,"mean_anomaly_deg":101.4164,"bstar":4.5954e-5,"rev_number":17388,"period_min":94.267183214782,"perigee_km":482.10412143676,"apogee_km":484.03623737848,"semimajor_km":6861.2071794076,"source":"CELESTRAK","updated_at":"2026-05-25T13:38:17.961901Z"}}}